Presure
206 198 202 204 213 201 204 218 187 191 189 195 185 180 176 192 189 210 190 225 211 239 271 273 279 244 247 201 200 206 185 188 185 188 199 221 212 195 195 196 204 204 200 210
219 199 209 212 207 225 210 210 190 183 184 198 197 186 180 187 171 205 198 181 204 230 222 259 258 259 287 272 223 213 193 197 205 222 222 202 192 222 213 213 210 206 216 215
212 205 214 240 196 217 220 206 196 193 196 195 188 179 180 185 177 200 181 199 190 247 213 220 238 256 242 249 258 249 236 207 227 206 207 207 209 216 218 215 215 213 207 211
215 216 221 236 197 215 213 206 190 204 193 182 197 198 185 194 189 180 207 201 191 199 223 189 227 222 223 235 249 251 251 244 232 226 222 219 221 219 216 217 220 224 225 213
227 221 232 225 205 203 208 201 173 190 197 190 189 189 188 189 172 188 201 207 190 185 215 207 194 232 228 227 222 216 214 221 259 261 254 249 246 245 239 236 233 229 230 227
234 241 239 222 221 204 183 205 166 200 199 191 199 196 186 188 180 185 171 183 191 180 193 226 223 212 212 222 240 233 236 239 226 220 221 222 227 229 223 234 240 229 237 235
246 226 201 211 220 205 207 197 205 181 198 192 197 198 191 191 200 190 182 211 197 196 191 208 207 197 210 219 222 223 229 231 229 230 226 230 217 224 213 215 234 219 242 229
223 243 228 202 217 213 182 90 207 205 97 198 188 197 197 160 148 180 194 191 208 203 198 200 203 208 211 221 220 216 217 222 228 227 226 228 217 219 211 224 225 221 222 207
268 182 223 227 218 155 203 205 208 209 211 191 138 190 181 197 186 190 202 200 183 200 190 189 202 204 206 210 211 217 212 214 219 220 218 221 214 226 218 232 206 227 232 211
265 251 236 237 230 211 221 205 207 206 206 228 214 194 205 186 193 200 190 201 189 198 202 199 199 200 205 207 213 216 213 215 213 213 222 221 224 225 219 217 233 215 231 234
257 251 237 233 213 223 215 221 212 213 215 200 203 205 209 189 204 201 204 200 199 197 206 199 200 202 204 213 211 213 212 213 217 215 213 222 220 220 205 223 225 228 225 231
247 241 229 223 220 226 214 212 217 213 213 204 204 216 208 203 205 209 207 199 202 196 205 203 203 203 209 207 214 213 211 181 216 205 207 220 219 204 221 212 232 231 228 218
177 242 237 236 227 226 215 210 215 217 213 216 218 217 207 207 208 209 205 202 201 201 200 211 203 201 209 210 214 211 212 212 210 217 214 217 221 199 214 227 233 227 236 239
254 251 243 238 228 225 221 215 213 216 213 212 221 217 206 207 211 207 205 206 205 201 207 213 207 208 207 215 212 207 211 205 204 222 216 216 209 227 236 219 227 242 242 244
240 233 233 229 224 224 224 220 212 212 213 214 215 213 212 209 207 209 202 204 203 205 212 211 213 210 216 214 207 209 211 192 216 217 215 211 225 233 219 238 249 245 248 242
238 233 233 232 225 223 225 219 215 213 210 216 214 213 207 208 209 209 206 204 204 211 217 216 206 198 181 216 204 206 194 216 217 200 206 227 235 231 239 251 249 248 226 239
234 238 205 231 223 224 220 220 214 213 214 215 212 208 207 211 211 204 205 214 218 211 212 215 215 224 213 206 212 207 216 215 206 207 227 242 225 250 251 248 216 248 248 257
236 235 228 232 233 225 223 224 221 216 215 215 214 214 210 208 206 214 210 212 210 210 211 219 222 221 216 215 212 220 215 206 216 227 240 258 255 254 249 240 237 240 245 243
236 231 230 230 230 225 223 223 223 220 219 222 223 221 217 215 215 214 213 212 216 219 223 223 218 218 219 218 221 204 207 223 225 235 262 268 244 239 226 235 247 237 235 229
235 234 234 232 231 227 224 223 222 222 220 218 218 217 216 219 222 221 221 221 226 225 223 224 227 226 224 207 205 224 228 222 249 262 261 259 227 241 248 241 233 234 228 236
235 234 232 228 233 234 233 229 227 228 228 229 228 228 230 230 229 230 227 228 220 218 227 231 222 223 227 227 229 230 241 265 271 251 231 245 245 246 239 236 227 249 247 247
239 235 233 233 232 232 231 231 232 234 234 233 233 232 232 232 230 220 229 231 226 228 227 230 209 227 228 227 249 263 265 261 250 246 249 241 237 237 232 241 249 250 241 235
239 235 236 235 234 234 234 232 228 228 227 229 230 231 234 231 232 232 226 227 212 229 231 229 239 247 255 268 264 254 249 243 239 251 241 231 250 253 255 252 241 239 256 253
241 241 242 238 237 235 232 227 231 234 234 231 231 234 233 226 229 226 230 230 231 239 247 253 264 262 267 260 259 260 261 254 242 238 254 249 250 248 240 261 276 255 270 266
240 240 241 242 240 239 239 239 237 236 235 237 233 239 237 230 239 242 249 250 218 252 265 259 261 263 259 241 244 253 252 252 252 251 247 247 275 282 258 267 267 272 291 295
246 244 244 242 245 245 240 248 248 248 246 247 234 251 236 256 248 259 261 250 265 276 277 280 280 268 259 269 264 258 258 243 252 265 271 261 258 273 277 288 297 325 381 434
258 253 256 256 240 241 259 261 259 227 261 260 262 257 254 272 274 269 266 271 259 259 253 254 260 259 263 264 262 271 274 265 262 265 278 282 291 300 325 371 439 438 444 442
Wind_Speed
74 63 60 56 53 46 48 42 48 41 38 34 32 35 28 30 28 31 17 27 26 30 26 22 26 29 31 34 42 47 48 47 49 58 60 66 70 64 64 68 70 70 70 72
76 66 66 60 51 56 50 42 51 48 42 39 31 35 34 31 25 33 26 17 29 27 32 28 22 19 25 35 45 55 51 54 57 60 57 58 60 61 63 66 67 69 68 68
75 71 74 64 50 59 55 50 49 43 43 40 37 39 39 35 33 31 23 30 20 19 31 34 28 25 26 27 28 33 41 51 49 56 58 59 62 62 62 65 65 66 69 70
80 80 74 56 54 58 57 53 58 44 47 46 38 34 43 37 35 34 35 36 28 26 25 35 33 35 33 34 39 43 46 47 50 53 56 58 60 60 63 65 67 68 68 69
83 81 73 57 58 64 62 59 50 52 52 48 44 37 43 41 33 40 38 37 33 27 31 34 31 30 36 39 41 41 41 41 41 45 48 50 53 54 57 60 62 65 67 69
80 79 70 59 65 70 52 61 42 55 54 49 44 39 50 45 40 42 29 36 41 31 41 33 31 40 35 33 35 40 42 40 44 46 46 47 45 44 52 56 60 63 65 69
83 69 58 61 68 77 67 62 71 53 56 51 47 42 50 47 47 46 39 40 41 44 49 45 46 39 47 44 43 41 42 45 46 47 50 50 53 53 59 63 58 62 58 64
62 75 65 67 73 76 54 4 74 65 18 53 49 47 51 36 37 44 45 49 44 47 52 52 50 49 50 49 51 52 52 51 51 52 53 52 56 58 63 62 63 67 68 72
79 50 67 70 73 44 75 72 74 69 67 54 27 51 48 54 46 47 45 50 50 51 54 56 53 53 56 56 58 57 59 60 62 60 59 61 62 65 64 67 68 66 70 76
72 66 64 67 72 72 80 77 76 69 66 58 60 55 55 53 54 53 46 51 52 54 54 55 57 59 60 62 60 60 63 65 63 65 68 68 67 67 64 68 73 70 76 79
63 62 68 66 73 75 74 80 80 74 74 59 59 60 60 55 59 56 54 54 54 56 55 56 59 62 62 62 63 64 68 71 73 69 70 75 74 73 68 79 80 81 78 83
63 71 74 73 74 72 76 78 81 69 69 62 61 62 64 63 60 59 57 56 59 59 58 58 62 63 65 66 66 69 70 60 74 72 75 82 82 72 84 80 87 84 85 80
53 73 74 72 73 72 75 74 78 72 70 70 68 62 62 66 64 61 59 58 62 65 64 65 63 66 67 68 70 71 73 76 77 82 80 82 83 74 84 89 90 85 92 94
71 67 66 69 70 71 73 74 75 76 71 67 70 62 63 65 64 60 61 64 67 68 69 71 68 69 70 71 69 72 78 76 77 86 85 85 78 91 94 86 93 98 97 99
66 65 66 68 70 71 72 75 74 73 72 71 70 67 65 64 63 66 67 68 68 71 74 73 74 74 76 74 72 78 81 69 89 89 87 84 94 95 88 100 98 97 101 98
68 68 69 68 71 73 73 75 74 72 70 73 71 70 65 66 67 70 70 70 72 76 77 75 72 67 67 83 75 80 68 90 92 75 83 98 100 97 101 99 99 98 91 97
66 69 52 71 73 75 73 75 73 72 72 73 72 70 70 72 73 69 72 76 77 71 75 84 87 89 85 81 86 84 92 92 86 91 102 103 98 102 99 100 86 104 105 106
71 71 70 71 73 77 77 78 77 75 75 77 76 75 74 75 75 79 75 78 78 80 83 90 91 90 89 89 89 97 95 88 98 106 109 106 104 102 102 100 101 104 109 113
72 70 72 73 75 77 77 77 78 77 78 80 81 80 81 80 82 82 81 81 88 91 92 91 88 89 92 94 96 85 90 101 104 108 103 99 97 98 97 102 108 106 108 104
71 71 73 73 76 78 78 78 79 79 80 80 81 81 82 84 87 88 90 91 93 92 90 91 93 94 94 84 86 101 104 102 110 100 99 99 98 103 106 107 104 110 105 115
69 70 72 73 76 78 80 82 82 84 86 88 88 88 89 90 90 90 89 89 87 87 91 92 92 94 97 100 101 102 104 102 99 100 97 103 106 110 110 108 101 123 125 127
69 70 70 73 75 76 77 77 79 81 83 85 86 85 86 87 87 85 89 91 90 91 94 96 83 97 100 99 106 107 102 100 101 102 106 107 106 109 106 114 123 125 120 108
69 69 72 74 75 77 78 77 75 77 78 81 82 83 86 86 88 90 89 91 82 94 97 98 104 107 107 103 101 100 102 101 102 109 107 102 116 121 124 124 117 114 131 129
71 74 77 78 78 77 75 73 78 82 84 83 85 87 88 85 87 88 92 94 97 102 105 108 106 104 101 102 103 105 107 106 106 106 115 116 118 118 111 127 136 126 132 131
69 71 75 78 80 82 85 86 87 87 87 89 87 94 93 88 96 99 103 106 87 102 106 106 106 106 105 101 105 108 108 110 112 115 114 114 130 130 124 127 128 131 141 142
73 76 78 79 83 86 83 90 92 94 94 95 85 99 90 105 99 106 105 102 104 103 104 105 107 106 106 110 109 110 113 107 113 123 126 121 120 128 131 136 142 147 124 98
77 80 82 85 74 77 91 93 94 76 96 97 100 99 99 102 102 102 102 103 100 100 99 102 106 108 111 113 115 123 123 119 118 120 128 130 135 141 146 128 95 94 91 90
Wind_Direction
249 255 255 257 255 252 252 245 249 254 258 262 261 272 260 293 294 317 294 323 323 312 302 294 272 252 231 247 227 232 262 263 265 265 263 255 260 273 275 275 276 279 281 281
247 251 253 254 251 248 244 238 245 257 257 265 266 269 274 284 256 310 304 267 323 313 311 302 294 278 265 248 235 237 256 258 259 262 264 267 271 269 271 273 275 278 279 284
248 251 251 253 252 245 241 240 242 248 249 255 257 266 272 277 272 296 275 306 283 305 307 303 303 283 279 260 257 250 256 261 262 266 267 268 270 272 273 275 279 281 283 284
243 248 250 249 251 238 241 241 249 246 249 256 256 263 267 274 279 280 298 299 296 296 303 304 297 301 298 287 280 280 277 272 269 269 271 272 274 277 279 280 281 284 287 287
242 244 246 239 242 241 240 241 258 250 249 252 255 257 265 270 262 283 292 300 297 295 303 305 283 289 287 287 287 288 286 288 294 289 289 288 288 288 290 291 292 291 293 293
239 242 237 234 232 239 239 239 259 246 247 251 256 256 264 268 272 279 274 291 293 290 301 308 301 293 293 296 300 294 293 294 285 287 290 291 296 297 296 302 298 296 294 293
234 232 233 228 230 237 240 241 243 258 249 252 254 256 259 268 277 274 283 297 292 296 298 303 304 296 307 312 308 305 304 301 299 298 297 299 294 294 293 295 299 298 307 300
236 229 228 232 232 233 240 239 244 246 272 251 257 256 260 256 267 272 281 284 292 292 294 299 305 309 309 310 308 307 305 304 305 304 302 300 295 294 294 302 298 295 296 297
235 235 229 229 229 229 242 244 246 247 249 254 240 258 263 267 271 277 282 284 289 290 293 297 302 305 306 305 305 307 306 306 308 308 306 304 302 302 301 310 298 309 310 301
232 232 229 228 226 234 232 242 246 249 252 253 251 260 260 266 270 276 279 282 286 287 291 293 297 299 302 304 306 305 303 303 304 305 306 304 306 308 306 305 310 302 311 311
224 225 223 222 230 230 236 238 244 247 247 252 257 260 260 267 269 273 277 279 283 285 289 292 294 295 299 303 303 303 303 303 305 306 306 308 309 310 304 310 309 311 310 311
221 219 220 222 228 229 237 242 245 249 253 254 254 255 259 265 269 272 276 279 283 286 289 289 290 295 299 300 301 300 301 298 304 306 307 309 308 303 308 306 310 311 309 304
226 222 223 223 230 230 238 246 250 250 253 255 257 256 261 265 269 273 276 282 284 285 286 290 289 292 296 297 299 300 301 304 305 302 303 305 306 301 305 309 311 309 308 310
220 224 224 225 230 232 237 243 249 253 256 258 260 260 262 267 274 278 279 279 280 284 288 290 289 292 294 296 298 299 302 301 301 302 305 305 302 307 307 306 310 307 309 308
221 224 226 227 231 234 236 241 248 252 256 259 261 263 265 270 274 275 277 279 282 286 287 289 291 292 296 299 299 298 298 296 302 303 304 303 306 306 304 307 304 306 305 307
219 223 226 227 232 236 237 243 248 252 257 259 262 266 267 269 271 273 276 279 282 283 285 286 285 286 296 295 295 298 293 300 301 299 303 304 304 305 305 303 304 306 305 308
223 221 236 228 234 237 242 245 252 255 259 262 264 267 270 273 274 276 279 281 285 287 293 294 291 292 294 295 297 298 297 300 302 304 302 303 304 303 303 306 304 307 308 308
222 225 232 232 233 238 243 245 250 255 258 260 264 267 269 272 276 279 284 287 288 289 289 289 289 290 292 293 295 295 297 301 302 303 304 301 301 302 303 306 307 308 311 312
225 230 234 236 237 241 246 250 252 257 260 261 264 267 270 273 276 279 281 283 284 284 285 286 288 289 289 291 291 297 298 297 300 301 297 296 299 302 302 304 307 310 311 310
228 232 235 239 241 244 249 252 255 258 261 264 267 270 273 274 275 277 279 280 281 283 286 286 287 288 289 293 295 294 295 297 298 295 297 297 299 304 304 307 308 308 309 308
231 235 239 244 245 246 249 252 255 258 261 263 266 269 270 272 274 276 278 280 283 284 285 286 288 289 290 291 292 293 295 295 292 298 296 301 303 303 304 305 305 302 302 303
235 239 243 246 249 252 255 258 260 261 263 265 268 271 273 274 276 278 279 281 284 285 286 287 289 290 291 293 293 293 295 298 299 301 301 302 302 302 303 301 300 301 302 306
239 243 245 247 250 253 256 260 264 266 268 270 271 273 274 276 277 279 281 283 285 286 286 288 290 291 292 292 294 296 297 297 298 297 298 298 299 298 298 299 300 302 299 300
241 244 246 249 253 257 261 264 266 266 268 270 272 273 275 277 279 281 282 284 286 287 289 290 291 293 290 292 291 292 293 296 297 298 295 296 296 297 299 298 297 299 297 299
248 250 253 254 256 258 260 262 264 266 269 271 273 274 276 279 281 283 284 285 287 287 287 290 291 291 293 293 294 294 294 293 294 295 296 297 296 296 297 297 297 298 298 299
251 253 255 257 258 260 262 263 264 266 269 272 275 277 280 279 282 283 282 286 285 284 286 285 285 289 292 291 292 293 294 294 295 295 295 295 296 296 296 297 297 298 298 298
251 253 255 257 262 264 263 266 268 277 271 273 274 275 277 278 278 282 285 286 287 288 289 290 290 291 292 292 292 293 293 292 293 294 294 295 296 296 296 297 298 298 298 297